[[{"header":{"parameterUnit":"m.s-1","parameterCategory":1,"la1":30.2991,"la2":30.254,"lo1":-89.0895,"lo2":-89.0444,"dy":0.0017,"dx":0.0017,"nx":28,"ny":28,"refTime":"2024-08-21T09:00:00:Z","depth":0,"parameterNumber":2,"parameterNumberName":"U-component_of_WINDS"},"data":[0,0,0,0,0,0,0,0,0,0,0,0,0,0,0,0,0,0,0,0,0,0,0,0,0,0,0,0,0,0,0,0,0,0,0,0,0,0,0,0,0,0,0,0,0,0,0,0,0,0,0,0,0,0,0,0,0,0,-1.8888,-1.8888,0,-1.8929,-1.8929,-1.893,-1.8837,-1.8834,-1.8831,-1.8828,-1.8871,-1.8875,-1.8878,0,0,0,0,0,0,0,0,0,0,0,0,0,-1.8728,-1.8732,-1.8888,-1.8888,-1.8889,-1.8929,-1.8929,-1.893,-1.8837,-1.8833,-1.883,-1.8826,-1.8869,-1.8874,-1.8879,0,0,0,0,0,0,0,0,0,0,0,0,0,-1.8786,-1.8733,-1.8887,-1.8847,-1.8844,-1.8929,-1.8929,-1.893,-1.8838,-1.8833,-1.8829,-1.8825,-1.8868,-1.8874,-1.8879,-1.9005,0,0,-1.8897,-1.89,0,0,0,0,0,0,0,0,-1.8783,-1.8792,-1.8853,-1.885,-1.8847,-1.8873,-1.8889,-1.8955,-1.8839,-1.884,-1.8828,-1.8823,-1.8875,-1.888,-1.8898,-1.9007,-1.9009,-1.8898,-1.8902,-1.8904,-1.8906,0,0,0,0,0,0,0,-1.8779,-1.879,-1.8904,-1.8854,-1.885,-1.8827,-1.883,-1.8901,-1.8882,-1.884,-1.8833,-1.8839,-1.8873,-1.8892,-1.8898,-1.901,-1.8898,-1.8903,-1.8907,-1.8909,-1.9223,-1.9228,0,0,0,0,0,0,-1.878,-1.8787,-1.8902,-1.8905,-1.8803,-1.8833,-1.8837,-1.8869,-1.8881,-1.8879,-1.8843,-1.8835,-1.8884,-1.8891,-1.8899,-1.9047,-1.8904,-1.891,-1.8913,-1.9218,-1.9224,-1.923,0,0,0,0,0,0,-1.8777,-1.8791,-1.8901,-1.8844,-1.8856,-1.8841,-1.8878,-1.8872,-1.8892,-1.8884,-1.888,-1.8867,-1.8881,-1.8891,-1.8979,-1.9047,-1.8912,-1.8918,-1.9213,-1.922,-1.9227,-1.9343,0,0,0,0,0,0,-1.8773,-1.8791,-1.8839,-1.8846,-1.886,-1.8981,-1.8882,-1.8876,-1.8902,-1.8892,-1.8905,-1.8903,-1.8878,-1.8971,-1.8985,-1.9053,-1.8922,-1.9207,-1.9216,-1.9225,-1.9333,-1.9354,-1.9371,0,0,0,0,0,-1.8768,-1.887,-1.8842,-1.8856,-1.8919,-1.8985,-1.8993,-1.8963,-1.8908,-1.8956,-1.895,-1.8902,-1.9037,-1.8981,-1.8996,-1.9066,-1.9202,-1.9213,-1.9224,-1.9325,-1.935,-1.9371,0,0,0,0,0,0,-1.8872,-1.8871,-1.8839,-1.8947,-1.8967,-1.8969,-1.9029,-1.899,-1.9026,-1.9015,-1.8976,-1.8979,-1.9075,-1.9079,-1.9017,-1.9188,-1.911,-1.9125,-1.9182,-1.9205,-1.9224,-1.9221,-1.8927,0,0,0,0,0,-1.8908,-1.8961,-1.8957,-1.9053,-1.9064,-1.9045,-1.9072,-1.9047,-1.9066,-1.9074,-1.9075,-1.9095,-1.9142,-1.9174,-1.9216,-1.9333,-1.9334,-1.9389,-1.9408,-1.9423,-1.9436,-1.9497,-1.9521,-1.9265,-1.9265,-1.9265,0,0,-1.8982,-1.8988,-1.9024,-1.9074,-1.9086,-1.9142,-1.9053,-1.9116,-1.9157,-1.9084,-1.9167,-1.9169,-1.9188,-1.9291,-1.9337,-1.9298,-1.9507,-1.9437,-1.9449,-1.9454,-1.9511,-1.9535,-1.9557,-1.9272,-1.9271,-1.927,0,0,-1.9146,-1.9156,-1.9236,-1.925,-1.9269,-1.9256,-1.9275,-1.9283,-1.9281,-1.9364,-1.931,-1.9358,-1.9439,-1.9456,-1.9474,-1.9643,-1.96,-1.9658,-1.9756,-1.9816,-1.9836,-1.9854,-1.9914,-1.9936,-1.9671,-1.9671,-1.9671,0,-1.9236,-1.9318,-1.9282,-1.9349,-1.9372,-1.9308,-1.9389,-1.9404,-1.9437,-1.9454,-1.941,-1.951,-1.9519,-1.9624,-1.9665,-1.9683,-1.9703,-1.9656,-1.9836,-1.9854,-1.987,-1.9926,-1.9949,-1.9678,-1.9677,-1.9676,-1.9676,0,-1.9427,-1.9485,-1.9547,-1.958,-1.961,-1.9684,-1.9659,-1.9694,-1.9666,-1.9657,-1.9741,-1.9749,-1.9792,-1.9815,-1.9789,-1.9917,-1.9892,-1.9843,-1.9764,-1.9902,-1.9954,-1.9975,-1.9688,-1.9685,-1.9683,-1.9681,0,0,-1.9659,-1.967,-1.9694,-1.9707,-1.9723,-1.9767,-1.9837,-1.9878,-1.9909,-1.9933,-1.999,-2.006,-2.0014,-2.0036,-2.001,-2.0063,-2.0195,-2.0007,-2.0007,-2.0042,-2.0336,-2.0373,-2.0399,-2.0166,-2.017,-2.0173,-2.0334,0,-1.9821,-1.9941,-1.9911,-2.003,-2.0083,-2.0022,-2.0082,-2.0099,-2.0092,-2.0135,-2.0127,-2.0177,-2.0113,-2.0125,-2.0175,-2.0169,-2.0254,-2.0157,-2.0219,-2.0222,-2.0217,-2.0426,-2.0466,-2.0617,-2.0354,-2.0358,-2.036,0,-2.0026,-2.0057,-2.0182,-2.0188,-2.0209,-2.0265,-2.0299,-2.0342,-2.0358,-2.0349,-2.0373,-2.0337,-2.0405,-2.0326,-2.0419,-2.0354,-2.0377,-2.0378,-2.0383,-2.0388,-2.03,-2.0437,-2.0665,-2.0688,-2.0392,-2.039,-2.0388,0,-2.0182,-2.0256,-2.034,-2.0353,-2.0363,-2.0403,-2.0409,-2.0421,-2.0447,-2.0478,-2.0494,-2.0532,-2.0553,-2.0584,-2.0558,-2.0503,-2.0656,-2.0574,-2.065,-2.0651,-2.0686,-2.0684,-2.0921,-2.0701,-2.0701,-2.07,-2.07,0,-2.0366,-2.0445,-2.041,-2.0462,-2.0548,-2.0512,-2.0598,-2.0596,-2.0608,-2.0658,-2.0607,-2.0655,-2.0618,-2.0663,-2.0644,-2.0724,-2.0734,-2.0728,-2.0722,-2.0733,-2.0734,-2.0748,-2.0737,-2.0706,-2.0705,-2.0704,-2.0703,0,-2.0556,-2.0536,-2.0623,-2.0624,-2.0626,-2.069,-2.0691,-2.0738,-2.0727,-2.0791,-2.0804,-2.0786,-2.0836,-2.0814,-2.0866,-2.0853,-2.0956,-2.0936,-2.0951,-2.0945,-2.1022,-2.1015,-2.1277,-2.1309,-2.1069,-2.1071,-2.1073,0,-2.0675,-2.0734,-2.0741,-2.0771,-2.078,-2.0829,-2.0855,-2.0821,-2.0851,-2.0874,-2.0918,-2.0964,-2.0998,-2.1081,-2.1072,-2.1112,-2.1092,-2.1181,-2.1098,-2.1107,-2.1093,-2.109,-2.1095,-2.1198,-2.1201,-2.1203,-2.1205,0,-2.0888,-2.0874,-2.0914,-2.0951,-2.0983,-2.101,-2.1033,-2.106,-2.1027,-2.1063,-2.1113,-2.114,-2.1192,-2.1238,-2.1272,-2.1278,-2.1236,-2.1231,-2.1251,-2.1262,-2.1268,-2.1266,-2.0996,-2.1225,-2.1223,-2.1222,-2.1221,-2.122,-2.1045,-2.1094,-2.1107,-2.1153,-2.1166,-2.1188,-2.1233,-2.1226,-2.1268,-2.1308,-2.1285,-2.1344,-2.1358,-2.1399,-2.141,-2.1455,-2.142,-2.1449,-2.1456,-2.1463,-2.1473,-2.1261,-2.1461,-2.1461,-2.146,-2.146,-2.1459,0,-2.1255,-2.126,-2.1302,-2.1335,-2.1371,-2.1328,-2.1351,-2.1384,-2.1435,-2.1452,-2.1486,-2.1543,-2.1587,-2.1582,-2.1621,-2.1658,-2.164,-2.167,-2.1667,-2.1668,-2.1503,-2.1482,-2.1684,-2.1684,-2.1684,-2.1683,-2.1683,-2.1683,-2.1369,-2.1449,-2.1437,-2.1524,-2.1528,-2.1584,-2.1601,-2.1621,-2.1633,-2.1699,-2.1735,-2.1731,-2.1738,-2.1778,-2.1816,-2.1813,-2.183,-2.1866,-2.1857,-2.1702,-2.168,-2.1659,-2.1639,-2.1871,-2.1871,-2.2018,-2.202,-2.2021]},{"header":{"parameterUnit":"m.s-1","parameterCategory":1,"la1":30.2991,"la2":30.254,"lo1":-89.0895,"lo2":-89.0444,"dy":0.0017,"dx":0.0017,"nx":28,"ny":28,"refTime":"2024-08-21T09:00:00:Z","depth":0,"parameterNumber":3,"parameterNumberName":"V-component_of_WINDS"},"data":[0,0,0,0,0,0,0,0,0,0,0,0,0,0,0,0,0,0,0,0,0,0,0,0,0,0,0,0,0,0,0,0,0,0,0,0,0,0,0,0,0,0,0,0,0,0,0,0,0,0,0,0,0,0,0,0,0,0,-2.1819,-2.182,0,-2.1879,-2.1879,-2.188,-2.1882,-2.1881,-2.1881,-2.188,-2.1937,-2.1939,-2.1941,0,0,0,0,0,0,0,0,0,0,0,0,0,-2.1704,-2.1706,-2.1819,-2.182,-2.1821,-2.1879,-2.1879,-2.188,-2.1882,-2.1881,-2.188,-2.188,-2.1936,-2.1939,-2.1941,0,0,0,0,0,0,0,0,0,0,0,0,0,-2.1758,-2.1707,-2.1819,-2.1829,-2.183,-2.1878,-2.1879,-2.188,-2.1882,-2.1881,-2.188,-2.1879,-2.1935,-2.1939,-2.1942,-2.1983,0,0,-2.1952,-2.1953,0,0,0,0,0,0,0,0,-2.1755,-2.1762,-2.1827,-2.1828,-2.183,-2.1872,-2.186,-2.1915,-2.1883,-2.1863,-2.188,-2.1879,-2.1916,-2.1921,-2.1934,-2.1986,-2.1988,-2.1952,-2.1954,-2.1955,-2.1956,0,0,0,0,0,0,0,-2.1751,-2.1759,-2.1843,-2.1828,-2.183,-2.1829,-2.1835,-2.187,-2.1894,-2.1864,-2.1864,-2.1872,-2.1917,-2.1931,-2.1935,-2.1989,-2.1952,-2.1955,-2.1957,-2.1958,-2.2076,-2.2077,0,0,0,0,0,0,-2.1746,-2.1756,-2.1841,-2.1844,-2.1789,-2.1832,-2.1839,-2.1859,-2.1894,-2.1898,-2.1872,-2.1872,-2.1926,-2.1932,-2.1937,-2.1987,-2.1955,-2.1959,-2.196,-2.2074,-2.2076,-2.2077,0,0,0,0,0,0,-2.1743,-2.1753,-2.1838,-2.18,-2.1811,-2.1835,-2.1858,-2.1861,-2.1876,-2.19,-2.1904,-2.1883,-2.1925,-2.1933,-2.1972,-2.1989,-2.196,-2.1963,-2.2073,-2.2075,-2.2076,-2.2086,0,0,0,0,0,0,-2.174,-2.1752,-2.1769,-2.1801,-2.1813,-2.1873,-2.1859,-2.1863,-2.1882,-2.1881,-2.1911,-2.1915,-2.1925,-2.1967,-2.1975,-2.1993,-2.1966,-2.2072,-2.2074,-2.2076,-2.2085,-2.2088,-2.2091,0,0,0,0,0,-2.1736,-2.1769,-2.177,-2.178,-2.1835,-2.1874,-2.1881,-2.1893,-2.1883,-2.1899,-2.1915,-2.1914,-2.1986,-2.1971,-2.198,-2.1999,-2.2071,-2.2073,-2.2076,-2.2083,-2.2088,-2.2091,0,0,0,0,0,0,-2.1738,-2.1774,-2.1775,-2.182,-2.1844,-2.1874,-2.1895,-2.1897,-2.1924,-2.1922,-2.1934,-2.1941,-2.1979,-2.1993,-2.1975,-2.204,-2.2027,-2.2031,-2.2029,-2.2034,-2.2037,-2.2032,-2.1968,0,0,0,0,0,-2.1744,-2.1774,-2.1803,-2.184,-2.1852,-2.1872,-2.1889,-2.1896,-2.1921,-2.1931,-2.1949,-2.1972,-2.2,-2.2018,-2.2045,-2.2087,-2.2093,-2.2104,-2.2108,-2.2111,-2.2114,-2.2136,-2.2141,-2.2086,-2.2086,-2.2086,0,0,-2.1756,-2.1779,-2.1797,-2.1841,-2.186,-2.1889,-2.188,-2.1911,-2.1933,-2.1935,-2.1973,-2.1987,-2.2013,-2.2054,-2.2072,-2.2067,-2.2131,-2.2114,-2.2116,-2.2118,-2.2139,-2.2144,-2.2149,-2.2087,-2.2087,-2.2087,0,0,-2.1793,-2.1815,-2.1847,-2.1867,-2.1897,-2.1909,-2.1917,-2.1947,-2.1957,-2.1995,-2.1997,-2.2022,-2.207,-2.2088,-2.2103,-2.2147,-2.2146,-2.2155,-2.2172,-2.2193,-2.2198,-2.2201,-2.2215,-2.222,-2.2158,-2.2158,-2.2158,0,-2.1804,-2.185,-2.1863,-2.1895,-2.1913,-2.1917,-2.1949,-2.1967,-2.2004,-2.2016,-2.2009,-2.2068,-2.2086,-2.213,-2.2141,-2.2154,-2.2161,-2.2151,-2.2196,-2.22,-2.2204,-2.2217,-2.2223,-2.2159,-2.2159,-2.2159,-2.2159,0,-2.1861,-2.1892,-2.1914,-2.1951,-2.1971,-2.2003,-2.202,-2.2039,-2.2044,-2.2057,-2.2095,-2.2117,-2.2148,-2.2159,-2.2164,-2.2203,-2.2198,-2.2194,-2.2181,-2.221,-2.2222,-2.2228,-2.216,-2.216,-2.216,-2.216,0,0,-2.1901,-2.1944,-2.1952,-2.1968,-2.2001,-2.2024,-2.2055,-2.2086,-2.2102,-2.2127,-2.2152,-2.2192,-2.2187,-2.2205,-2.2212,-2.2231,-2.2261,-2.2224,-2.2224,-2.2229,-2.2304,-2.2307,-2.2312,-2.2262,-2.2263,-2.2264,-2.2302,0,-2.194,-2.1997,-2.201,-2.2057,-2.2085,-2.209,-2.2116,-2.2138,-2.2151,-2.2176,-2.2189,-2.2217,-2.221,-2.222,-2.2239,-2.2254,-2.2277,-2.2251,-2.2283,-2.2284,-2.2276,-2.2319,-2.2322,-2.2357,-2.2307,-2.2308,-2.2308,0,-2.1994,-2.2021,-2.2072,-2.21,-2.2112,-2.2136,-2.2165,-2.2189,-2.2214,-2.2221,-2.2241,-2.2246,-2.2276,-2.2263,-2.2304,-2.2286,-2.23,-2.2309,-2.2311,-2.2313,-2.2297,-2.2322,-2.2369,-2.2373,-2.2316,-2.2316,-2.2315,0,-2.2017,-2.2065,-2.2102,-2.2115,-2.215,-2.2166,-2.2181,-2.2205,-2.2222,-2.2247,-2.2258,-2.2286,-2.23,-2.2321,-2.2333,-2.2322,-2.2372,-2.236,-2.2378,-2.2378,-2.2388,-2.2387,-2.2436,-2.2399,-2.2399,-2.2399,-2.2399,0,-2.2059,-2.2089,-2.2112,-2.2135,-2.2168,-2.2182,-2.2214,-2.2229,-2.225,-2.2274,-2.2279,-2.2301,-2.2316,-2.2339,-2.2348,-2.238,-2.2387,-2.2393,-2.2395,-2.2392,-2.2391,-2.2401,-2.2398,-2.24,-2.24,-2.24,-2.2399,0,-2.2089,-2.2106,-2.2146,-2.2175,-2.2183,-2.2206,-2.2231,-2.2251,-2.2264,-2.2294,-2.2302,-2.2322,-2.235,-2.2364,-2.2398,-2.2404,-2.244,-2.2441,-2.2432,-2.2432,-2.245,-2.2447,-2.2506,-2.2513,-2.2472,-2.2472,-2.2473,0,-2.2114,-2.2138,-2.217,-2.2187,-2.2202,-2.223,-2.2248,-2.2261,-2.2279,-2.2309,-2.2326,-2.2354,-2.2378,-2.2422,-2.2438,-2.2464,-2.2465,-2.2484,-2.2469,-2.2465,-2.2464,-2.2462,-2.2463,-2.2486,-2.2487,-2.2487,-2.2487,0,-2.2157,-2.2164,-2.2191,-2.222,-2.2241,-2.2264,-2.2287,-2.23,-2.2317,-2.2337,-2.2367,-2.2385,-2.242,-2.2448,-2.2475,-2.2489,-2.249,-2.2492,-2.2497,-2.2494,-2.2487,-2.249,-2.2438,-2.249,-2.249,-2.249,-2.2489,-2.2489,-2.2185,-2.2206,-2.2231,-2.226,-2.2279,-2.23,-2.232,-2.2336,-2.2361,-2.2392,-2.2398,-2.2428,-2.2451,-2.2488,-2.2502,-2.2525,-2.2521,-2.2529,-2.2531,-2.2532,-2.2533,-2.2485,-2.253,-2.253,-2.253,-2.253,-2.253,0,-2.2227,-2.2243,-2.227,-2.2302,-2.2324,-2.2325,-2.235,-2.2368,-2.2395,-2.2417,-2.244,-2.2472,-2.2499,-2.2517,-2.2544,-2.2559,-2.256,-2.2565,-2.2564,-2.2566,-2.2536,-2.2528,-2.2564,-2.2564,-2.2564,-2.2564,-2.2564,-2.2564,-2.2251,-2.2286,-2.2296,-2.2339,-2.2355,-2.2386,-2.24,-2.2419,-2.2436,-2.2472,-2.2495,-2.2507,-2.2527,-2.2555,-2.2579,-2.2583,-2.2592,-2.2597,-2.2602,-2.2572,-2.2569,-2.2565,-2.2558,-2.2599,-2.2599,-2.263,-2.263,-2.2631]}]]